Henderson, NV

8:54 AM PST on December 10, 2016 (GMT -0800)
Henderson

Weather History for KHND - January, 2014

Change the Weather History Date:

Tuesday, January 7, 2014

  Actual Average (KLAS) Record (KLAS)
Temperature  
Mean Temperature 46 °F -  
Max Temperature 55 °F 52 °F 75 °F (1962)
Min Temperature 36 °F 32 °F 15 °F (1971)
Degree Days  
Heating Degree Days 19    
Moisture  
Dew Point 12 °F    
Average Humidity 28    
Maximum Humidity 38    
Minimum Humidity 15    
Precipitation  
Precipitation 0.00 in - - ()
Sea Level Pressure  
Sea Level Pressure 30.17 in    
Wind  
Wind Speed 6 mph (SSE)    
Max Wind Speed 12 mph    
Max Gust Speed -    
Visibility 10 miles    
Events      
Averages and records for this station are not official NWS values.
T = Trace of Precipitation, MM = Missing Value Source: NWS Daily Summary

Daily Weather History Graph

Daily Weather History Graph

Search for Another Location

Airport or City:

Trip Planner

Search our weather history database for the weather conditions in past years. The results will help you decide how hot, cold, wet, or windy it might be!

Date:

Astronomy

Jan. 07, 2014 Rise Set
Actual Time 6:51 AM PST 4:42 PM PST
Civil Twilight 6:23 AM PST 5:10 PM PST
Nautical Twilight 5:51 AM PST 5:42 PM PST
Astronomical Twilight 5:20 AM PST 6:13 PM PST
Moon 10:56 AM PST (1/7) No Moon Set
Length of Visible Light 10h 47m
Length of Day
9h 50m
Waxing Crescent, 46% of the Moon is Illuminated
Jan 7
Waxing Crescent
Jan 7
First Quarter
Jan 15
Full
Jan 23
Last Quarter
Jan 30
New

Hourly Weather History & Observations

Time (PST) Temp. Windchill Dew Point Humidity Pressure Visibility Wind Dir Wind Speed Gust Speed Precip Events Conditions
12:56 AM 37.9 °F 32.7 °F 12.0 °F 35% 30.24 in 10.0 mi South 6.9 mph - N/A   Clear
1:56 AM 39.9 °F 34.5 °F 11.1 °F 31% 30.23 in 10.0 mi South 8.1 mph - N/A   Clear
2:56 AM 41.0 °F 36.4 °F 12.0 °F 31% 30.21 in 10.0 mi South 6.9 mph - N/A   Clear
3:56 AM 41.0 °F 36.4 °F 13.1 °F 32% 30.19 in 10.0 mi South 6.9 mph - N/A   Clear
4:56 AM 41.0 °F 35.8 °F 11.1 °F 29% 30.19 in 10.0 mi South 8.1 mph - N/A   Clear
5:56 AM 41.0 °F 38.0 °F 10.0 °F 28% 30.23 in 10.0 mi South 4.6 mph - N/A   Clear
6:56 AM 37.9 °F 33.5 °F 13.1 °F 36% 30.22 in 10.0 mi South 5.8 mph - N/A   Clear
7:56 AM 39.9 °F 34.5 °F 11.1 °F 31% 30.22 in 10.0 mi South 8.1 mph - N/A   Clear
8:56 AM 45.9 °F 40.4 °F 10.0 °F 23% 30.23 in 10.0 mi SSW 11.5 mph - N/A   Clear
9:56 AM 52.0 °F - 9.1 °F 18% 30.22 in 10.0 mi South 3.5 mph - N/A   Clear
10:56 AM 55.9 °F - 10.0 °F 16% 30.19 in 10.0 mi NNE 4.6 mph - N/A   Clear
11:56 AM 55.9 °F - 10.0 °F 16% 30.16 in 10.0 mi NE 4.6 mph - N/A   Clear
12:56 PM 55.9 °F - 10.0 °F 16% 30.13 in 10.0 mi NE 5.8 mph - N/A   Clear
1:56 PM 55.9 °F - 8.1 °F 15% 30.11 in 10.0 mi NNE 6.9 mph - N/A   Clear
2:56 PM 54.9 °F - 10.0 °F 17% 30.11 in 10.0 mi North 4.6 mph - N/A   Clear
3:56 PM 54.0 °F - 11.1 °F 18% 30.12 in 10.0 mi Calm Calm - N/A   Clear
4:56 PM 50.9 °F - 14.0 °F 23% 30.12 in 10.0 mi Calm Calm - N/A   Clear
5:56 PM 45.9 °F 44.6 °F 17.1 °F 32% 30.12 in 10.0 mi SE 3.5 mph - N/A   Clear
6:56 PM 43.0 °F 39.5 °F 16.2 °F 34% 30.12 in 10.0 mi South 5.8 mph - N/A   Clear
7:56 PM 41.9 °F 36.9 °F 15.1 °F 34% 30.13 in 10.0 mi SSE 8.1 mph - N/A   Clear
8:56 PM 38.8 °F 34.6 °F 15.1 °F 38% 30.14 in 10.0 mi South 5.8 mph - N/A   Clear
9:56 PM 37.9 °F 32.1 °F 14.0 °F 38% 30.13 in 10.0 mi South 8.1 mph - N/A   Clear
10:56 PM 37.9 °F 31.5 °F 13.1 °F 36% 30.12 in 10.0 mi SSE 9.2 mph - N/A   Clear
11:56 PM 36.9 °F 33.1 °F 13.1 °F 38% 30.10 in 10.0 mi SSW 4.6 mph - N/A   Clear